Year,Month,Day,Hour,Minute,Value (Times are PST for temperature in C)
2012,07,21,00,00,14.10
2012,07,21,00,01,14.10
2012,07,21,00,02,14.00
2012,07,21,00,03,14.00
2012,07,21,00,04,14.00
2012,07,21,00,05,13.90
2012,07,21,00,06,13.90
2012,07,21,00,07,13.90
2012,07,21,00,08,13.90
2012,07,21,00,09,13.80
2012,07,21,00,10,13.80
2012,07,21,00,11,13.70
2012,07,21,00,12,13.70
2012,07,21,00,13,13.70
2012,07,21,00,14,13.60
2012,07,21,00,15,13.60
2012,07,21,00,16,13.60
2012,07,21,00,17,13.50
2012,07,21,00,18,13.40
2012,07,21,00,19,13.40
2012,07,21,00,20,13.30
2012,07,21,00,21,13.30
2012,07,21,00,22,13.30
2012,07,21,00,23,13.20
2012,07,21,00,24,13.20
2012,07,21,00,25,13.20
2012,07,21,00,26,13.10
2012,07,21,00,27,13.10
2012,07,21,00,28,13.00
2012,07,21,00,29,13.00
2012,07,21,00,30,12.90
2012,07,21,00,31,12.90
2012,07,21,00,32,12.90
2012,07,21,00,33,12.90
2012,07,21,00,34,12.80
2012,07,21,00,35,12.80
2012,07,21,00,36,12.80
2012,07,21,00,37,12.70
2012,07,21,00,38,12.70
2012,07,21,00,39,12.70
2012,07,21,00,40,12.70
2012,07,21,00,41,12.60
2012,07,21,00,42,12.60
2012,07,21,00,43,12.60
2012,07,21,00,44,12.50
2012,07,21,00,45,12.50
2012,07,21,00,46,12.40
2012,07,21,00,47,12.40
2012,07,21,00,48,12.30
2012,07,21,00,49,12.30
2012,07,21,00,50,12.30
2012,07,21,00,51,12.30
2012,07,21,00,52,12.20
2012,07,21,00,53,12.20
2012,07,21,00,54,12.20
2012,07,21,00,55,12.20
2012,07,21,00,56,12.20
2012,07,21,00,57,12.10
2012,07,21,00,58,12.10
2012,07,21,00,59,12.10
2012,07,21,01,00,12.10
2012,07,21,01,01,12.10
2012,07,21,01,02,12.00
2012,07,21,01,03,12.00
2012,07,21,01,04,12.00
2012,07,21,01,05,12.00
2012,07,21,01,06,12.00
2012,07,21,01,07,12.00
2012,07,21,01,08,11.90
2012,07,21,01,09,11.90
2012,07,21,01,10,11.90
2012,07,21,01,11,11.90
2012,07,21,01,12,11.90
2012,07,21,01,13,11.90
2012,07,21,01,14,11.90
2012,07,21,01,15,11.90
2012,07,21,01,16,11.80
2012,07,21,01,17,11.80
2012,07,21,01,18,11.80
2012,07,21,01,19,11.80
2012,07,21,01,20,11.80
2012,07,21,01,21,11.80
2012,07,21,01,22,11.80
2012,07,21,01,23,11.70
2012,07,21,01,24,11.70
2012,07,21,01,25,11.70
2012,07,21,01,26,11.70
2012,07,21,01,27,11.60
2012,07,21,01,28,11.60
2012,07,21,01,29,11.60
2012,07,21,01,30,11.60
2012,07,21,01,31,11.50
2012,07,21,01,32,11.50
2012,07,21,01,33,11.50
2012,07,21,01,34,11.50
2012,07,21,01,35,11.50
2012,07,21,01,36,11.40
2012,07,21,01,37,11.40
2012,07,21,01,38,11.40
2012,07,21,01,39,11.40
2012,07,21,01,40,11.40
2012,07,21,01,41,11.40
2012,07,21,01,42,11.40
2012,07,21,01,43,11.40
2012,07,21,01,44,11.40
2012,07,21,01,45,11.30
2012,07,21,01,46,11.30
2012,07,21,01,47,11.30
2012,07,21,01,48,11.30
2012,07,21,01,49,11.30
2012,07,21,01,50,11.30
2012,07,21,01,51,11.20
2012,07,21,01,52,11.20
2012,07,21,01,53,11.20
2012,07,21,01,54,11.20
2012,07,21,01,55,11.20
2012,07,21,01,56,11.20
2012,07,21,01,57,11.20
2012,07,21,01,58,11.20
2012,07,21,01,59,11.20
2012,07,21,02,00,11.20
2012,07,21,02,01,11.20
2012,07,21,02,02,11.10
2012,07,21,02,03,11.10
2012,07,21,02,04,11.10
2012,07,21,02,05,11.10
2012,07,21,02,06,11.10
2012,07,21,02,07,11.10
2012,07,21,02,08,11.10
2012,07,21,02,09,11.10
2012,07,21,02,10,11.10
2012,07,21,02,11,11.10
2012,07,21,02,12,11.10
2012,07,21,02,13,11.10
2012,07,21,02,14,11.10
2012,07,21,02,15,11.10
2012,07,21,02,16,11.10
2012,07,21,02,17,11.10
2012,07,21,02,18,11.10
2012,07,21,02,19,11.00
2012,07,21,02,20,11.00
2012,07,21,02,21,11.00
2012,07,21,02,22,11.00
2012,07,21,02,23,10.90
2012,07,21,02,24,10.90
2012,07,21,02,25,10.90
2012,07,21,02,26,10.90
2012,07,21,02,27,10.90
2012,07,21,02,28,10.90
2012,07,21,02,29,10.80
2012,07,21,02,30,10.80
2012,07,21,02,31,10.80
2012,07,21,02,32,10.80
2012,07,21,02,33,10.80
2012,07,21,02,34,10.80
2012,07,21,02,35,10.80
2012,07,21,02,36,10.80
2012,07,21,02,37,10.80
2012,07,21,02,38,10.80
2012,07,21,02,39,10.70
2012,07,21,02,40,10.70
2012,07,21,02,41,10.70
2012,07,21,02,42,10.70
2012,07,21,02,43,10.70
2012,07,21,02,44,10.70
2012,07,21,02,45,10.70
2012,07,21,02,46,10.70
2012,07,21,02,47,10.70
2012,07,21,02,48,10.60
2012,07,21,02,49,10.60
2012,07,21,02,50,10.60
2012,07,21,02,51,10.60
2012,07,21,02,52,10.60
2012,07,21,02,53,10.60
2012,07,21,02,54,10.60
2012,07,21,02,55,10.50
2012,07,21,02,56,10.50
2012,07,21,02,57,10.50
2012,07,21,02,58,10.50
2012,07,21,02,59,10.50
2012,07,21,03,00,10.50
2012,07,21,03,01,10.50
2012,07,21,03,02,10.40
2012,07,21,03,03,10.40
2012,07,21,03,04,10.40
2012,07,21,03,05,10.40
2012,07,21,03,06,10.40
2012,07,21,03,07,10.40
2012,07,21,03,08,10.40
2012,07,21,03,09,10.40
2012,07,21,03,10,10.40
2012,07,21,03,11,10.40
2012,07,21,03,12,10.30
2012,07,21,03,13,10.30
2012,07,21,03,14,10.30
2012,07,21,03,15,10.30
2012,07,21,03,16,10.30
2012,07,21,03,17,10.30
2012,07,21,03,18,10.30
2012,07,21,03,19,10.30
2012,07,21,03,20,10.30
2012,07,21,03,21,10.30
2012,07,21,03,22,10.30
2012,07,21,03,23,10.30
2012,07,21,03,24,10.40
2012,07,21,03,25,10.40
2012,07,21,03,26,10.40
2012,07,21,03,27,10.40
2012,07,21,03,28,10.40
2012,07,21,03,29,10.40
2012,07,21,03,30,10.40
2012,07,21,03,31,10.40
2012,07,21,03,32,10.40
2012,07,21,03,33,10.40
2012,07,21,03,34,10.40
2012,07,21,03,35,10.40
2012,07,21,03,36,10.40
2012,07,21,03,37,10.40
2012,07,21,03,38,10.40
2012,07,21,03,39,10.40
2012,07,21,03,40,10.40
2012,07,21,03,41,10.40
2012,07,21,03,42,10.50
2012,07,21,03,43,10.50
2012,07,21,03,44,10.50
2012,07,21,03,45,10.50
2012,07,21,03,46,10.50
2012,07,21,03,47,10.50
2012,07,21,03,48,10.60
2012,07,21,03,49,10.60
2012,07,21,03,50,10.60
2012,07,21,03,51,10.60
2012,07,21,03,52,10.60
2012,07,21,03,53,10.60
2012,07,21,03,54,10.60
2012,07,21,03,55,10.60
2012,07,21,03,56,10.60
2012,07,21,03,57,10.60
2012,07,21,03,58,10.60
2012,07,21,03,59,10.70
2012,07,21,04,00,10.70
2012,07,21,04,01,10.70
2012,07,21,04,02,10.70
2012,07,21,04,03,10.70
2012,07,21,04,04,10.70
2012,07,21,04,05,10.70
2012,07,21,04,06,10.80
2012,07,21,04,07,10.80
2012,07,21,04,08,10.80
2012,07,21,04,09,10.80
2012,07,21,04,10,10.80
2012,07,21,04,11,10.70
2012,07,21,04,12,10.70
2012,07,21,04,13,10.70
2012,07,21,04,14,10.70
2012,07,21,04,15,10.70
2012,07,21,04,16,10.70
2012,07,21,04,17,10.70
2012,07,21,04,18,10.70
2012,07,21,04,19,10.70
2012,07,21,04,20,10.70
2012,07,21,04,21,10.70
2012,07,21,04,22,10.70
2012,07,21,04,23,10.70
2012,07,21,04,24,10.70
2012,07,21,04,25,10.70
2012,07,21,04,26,10.80
2012,07,21,04,27,10.80
2012,07,21,04,28,10.80
2012,07,21,04,29,10.80
2012,07,21,04,30,10.80
2012,07,21,04,31,10.80
2012,07,21,04,32,10.80
2012,07,21,04,33,10.90
2012,07,21,04,34,10.90
2012,07,21,04,35,10.90
2012,07,21,04,36,10.90
2012,07,21,04,37,10.90
2012,07,21,04,38,10.90
2012,07,21,04,39,10.90
2012,07,21,04,40,10.90
2012,07,21,04,41,10.90
2012,07,21,04,42,10.90
2012,07,21,04,43,10.90
2012,07,21,04,44,10.90
2012,07,21,04,45,10.90
2012,07,21,04,46,10.90
2012,07,21,04,47,10.90
2012,07,21,04,48,10.90
2012,07,21,04,49,10.90
2012,07,21,04,50,11.00
2012,07,21,04,51,11.00
2012,07,21,04,52,11.00
2012,07,21,04,53,11.00
2012,07,21,04,54,11.00
2012,07,21,04,55,11.00
2012,07,21,04,56,11.00
2012,07,21,04,57,11.00
2012,07,21,04,58,11.00
2012,07,21,04,59,11.00
2012,07,21,05,00,10.90
2012,07,21,05,01,10.90
2012,07,21,05,02,11.00
2012,07,21,05,03,11.00
2012,07,21,05,04,11.00
2012,07,21,05,05,11.00
2012,07,21,05,06,10.90
2012,07,21,05,07,10.90
2012,07,21,05,08,10.90
2012,07,21,05,09,10.90
2012,07,21,05,10,10.90
2012,07,21,05,11,10.90
2012,07,21,05,12,10.90
2012,07,21,05,13,10.90
2012,07,21,05,14,10.90
2012,07,21,05,15,10.90
2012,07,21,05,16,10.90
2012,07,21,05,17,10.90
2012,07,21,05,18,10.90
2012,07,21,05,19,10.90
2012,07,21,05,20,10.90
2012,07,21,05,21,10.90
2012,07,21,05,22,10.80
2012,07,21,05,23,10.80
2012,07,21,05,24,10.80
2012,07,21,05,25,10.80
2012,07,21,05,26,10.80
2012,07,21,05,27,10.80
2012,07,21,05,28,10.80
2012,07,21,05,29,10.80
2012,07,21,05,30,10.80
2012,07,21,05,31,10.80
2012,07,21,05,32,10.80
2012,07,21,05,33,10.80
2012,07,21,05,34,10.80
2012,07,21,05,35,10.80
2012,07,21,05,36,10.80
2012,07,21,05,37,10.80
2012,07,21,05,38,10.80
2012,07,21,05,39,10.70
2012,07,21,05,40,10.70
2012,07,21,05,41,10.70
2012,07,21,05,42,10.70
2012,07,21,05,43,10.70
2012,07,21,05,44,10.70
2012,07,21,05,45,10.70
2012,07,21,05,46,10.70
2012,07,21,05,47,10.70
2012,07,21,05,48,10.70
2012,07,21,05,49,10.70
2012,07,21,05,50,10.70
2012,07,21,05,51,10.70
2012,07,21,05,52,10.60
2012,07,21,05,53,10.70
2012,07,21,05,54,10.70
2012,07,21,05,55,10.70
2012,07,21,05,56,10.70
2012,07,21,05,57,10.70
2012,07,21,05,58,10.70
2012,07,21,05,59,10.70
2012,07,21,06,00,10.70
2012,07,21,06,01,10.70
2012,07,21,06,02,10.70
2012,07,21,06,03,10.70
2012,07,21,06,04,10.70
2012,07,21,06,05,10.70
2012,07,21,06,06,10.80
2012,07,21,06,07,10.80
2012,07,21,06,08,10.80
2012,07,21,06,09,10.80
2012,07,21,06,10,10.80
2012,07,21,06,11,10.80
2012,07,21,06,12,10.80
2012,07,21,06,13,10.80
2012,07,21,06,14,10.80
2012,07,21,06,15,10.80
2012,07,21,06,16,10.80
2012,07,21,06,17,10.80
2012,07,21,06,18,10.80
2012,07,21,06,19,10.80
2012,07,21,06,20,10.90
2012,07,21,06,21,10.90
2012,07,21,06,22,10.90
2012,07,21,06,23,10.90
2012,07,21,06,24,10.90
2012,07,21,06,25,10.90
2012,07,21,06,26,10.90
2012,07,21,06,27,10.90
2012,07,21,06,28,10.90
2012,07,21,06,29,10.90
2012,07,21,06,30,10.90
2012,07,21,06,31,10.90
2012,07,21,06,32,10.90
2012,07,21,06,33,10.90
2012,07,21,06,34,10.90
2012,07,21,06,35,10.90
2012,07,21,06,36,10.90
2012,07,21,06,37,10.90
2012,07,21,06,38,11.00
2012,07,21,06,39,11.00
2012,07,21,06,40,11.00
2012,07,21,06,41,11.00
2012,07,21,06,42,11.00
2012,07,21,06,43,11.00
2012,07,21,06,44,11.00
2012,07,21,06,45,11.10
2012,07,21,06,46,11.10
2012,07,21,06,47,11.10
2012,07,21,06,48,11.10
2012,07,21,06,49,11.10
2012,07,21,06,50,11.10
2012,07,21,06,51,11.10
2012,07,21,06,52,11.10
2012,07,21,06,53,11.10
2012,07,21,06,54,11.10
2012,07,21,06,55,11.10
2012,07,21,06,56,11.10
2012,07,21,06,57,11.10
2012,07,21,06,58,11.10
2012,07,21,06,59,11.10
2012,07,21,07,00,11.10
2012,07,21,07,01,11.10
2012,07,21,07,02,11.20
2012,07,21,07,03,11.20
2012,07,21,07,04,11.20
2012,07,21,07,05,11.20
2012,07,21,07,06,11.20
2012,07,21,07,07,11.20
2012,07,21,07,08,11.20
2012,07,21,07,09,11.20
2012,07,21,07,10,11.20
2012,07,21,07,11,11.20
2012,07,21,07,12,11.20
2012,07,21,07,13,11.30
2012,07,21,07,14,11.30
2012,07,21,07,15,11.30
2012,07,21,07,16,11.30
2012,07,21,07,17,11.30
2012,07,21,07,18,11.40
2012,07,21,07,19,11.40
2012,07,21,07,20,11.40
2012,07,21,07,21,11.40
2012,07,21,07,22,11.40
2012,07,21,07,23,11.40
2012,07,21,07,24,11.50
2012,07,21,07,25,11.50
2012,07,21,07,26,11.50
2012,07,21,07,27,11.50
2012,07,21,07,28,11.50
2012,07,21,07,29,11.50
2012,07,21,07,30,11.50
2012,07,21,07,31,11.50
2012,07,21,07,32,11.50
2012,07,21,07,33,11.60
2012,07,21,07,34,11.50
2012,07,21,07,35,11.60
2012,07,21,07,36,11.60
2012,07,21,07,37,11.60
2012,07,21,07,38,11.60
2012,07,21,07,39,11.60
2012,07,21,07,40,11.60
2012,07,21,07,41,11.60
2012,07,21,07,42,11.60
2012,07,21,07,43,11.60
2012,07,21,07,44,11.60
2012,07,21,07,45,11.70
2012,07,21,07,46,11.70
2012,07,21,07,47,11.70
2012,07,21,07,48,11.70
2012,07,21,07,49,11.80
2012,07,21,07,50,11.80
2012,07,21,07,51,11.80
2012,07,21,07,52,11.80
2012,07,21,07,53,11.80
2012,07,21,07,54,11.80
2012,07,21,07,55,11.80
2012,07,21,07,56,11.90
2012,07,21,07,57,11.90
2012,07,21,07,58,11.90
2012,07,21,07,59,11.90
2012,07,21,08,00,11.90
2012,07,21,08,01,11.90
2012,07,21,08,02,11.90
2012,07,21,08,03,11.90
2012,07,21,08,04,11.90
2012,07,21,08,05,11.90
2012,07,21,08,06,11.90
2012,07,21,08,07,11.90
2012,07,21,08,08,11.90
2012,07,21,08,09,11.90
2012,07,21,08,10,11.90
2012,07,21,08,11,12.00
2012,07,21,08,12,12.00
2012,07,21,08,13,12.00
2012,07,21,08,14,12.00
2012,07,21,08,15,12.10
2012,07,21,08,16,12.10
2012,07,21,08,17,12.10
2012,07,21,08,18,12.10
2012,07,21,08,19,12.10
2012,07,21,08,20,12.10
2012,07,21,08,21,12.20
2012,07,21,08,22,12.20
2012,07,21,08,23,12.20
2012,07,21,08,24,12.20
2012,07,21,08,25,12.20
2012,07,21,08,26,12.20
2012,07,21,08,27,12.30
2012,07,21,08,28,12.30
2012,07,21,08,29,12.30
2012,07,21,08,30,12.30
2012,07,21,08,31,12.30
2012,07,21,08,32,12.30
2012,07,21,08,33,12.30
2012,07,21,08,34,12.30
2012,07,21,08,35,12.30
2012,07,21,08,36,12.30
2012,07,21,08,37,12.40
2012,07,21,08,38,12.40
2012,07,21,08,39,12.40
2012,07,21,08,40,12.40
2012,07,21,08,41,12.40
2012,07,21,08,42,12.40
2012,07,21,08,43,12.40
2012,07,21,08,44,12.40
2012,07,21,08,45,12.40
2012,07,21,08,46,12.50
2012,07,21,08,47,12.50
2012,07,21,08,48,12.50
2012,07,21,08,49,12.60
2012,07,21,08,50,12.60
2012,07,21,08,51,12.60
2012,07,21,08,52,12.70
2012,07,21,08,53,12.70
2012,07,21,08,54,12.70
2012,07,21,08,55,12.70
2012,07,21,08,56,12.70
2012,07,21,08,57,12.80
2012,07,21,08,58,12.80
2012,07,21,08,59,12.80
2012,07,21,09,00,12.80
2012,07,21,09,01,12.80
2012,07,21,09,02,12.80
2012,07,21,09,03,12.80
2012,07,21,09,04,12.80
2012,07,21,09,05,12.80
2012,07,21,09,06,12.80
2012,07,21,09,07,12.90
2012,07,21,09,08,12.90
2012,07,21,09,09,12.90
2012,07,21,09,10,12.90
2012,07,21,09,11,12.90
2012,07,21,09,12,13.00
2012,07,21,09,13,13.00
2012,07,21,09,14,13.00
2012,07,21,09,15,13.00
2012,07,21,09,16,13.00
2012,07,21,09,17,13.10
2012,07,21,09,18,13.10
2012,07,21,09,19,13.10
2012,07,21,09,20,13.10
2012,07,21,09,21,13.10
2012,07,21,09,22,13.20
2012,07,21,09,23,13.20
2012,07,21,09,24,13.20
2012,07,21,09,25,13.20
2012,07,21,09,26,13.20
2012,07,21,09,27,13.30
2012,07,21,09,28,13.30
2012,07,21,09,29,13.30
2012,07,21,09,30,13.30
2012,07,21,09,31,13.30
2012,07,21,09,32,13.40
2012,07,21,09,33,13.40
2012,07,21,09,34,13.40
2012,07,21,09,35,13.40
2012,07,21,09,36,13.40
2012,07,21,09,37,13.40
2012,07,21,09,38,13.50
2012,07,21,09,39,13.50
2012,07,21,09,40,13.50
2012,07,21,09,41,13.50
2012,07,21,09,42,13.60
2012,07,21,09,43,13.60
2012,07,21,09,44,13.60
2012,07,21,09,45,13.60
2012,07,21,09,46,13.60
2012,07,21,09,47,13.60
2012,07,21,09,48,13.70
2012,07,21,09,49,13.70
2012,07,21,09,50,13.70
2012,07,21,09,51,13.70
2012,07,21,09,52,13.80
2012,07,21,09,53,13.80
2012,07,21,09,54,13.80
2012,07,21,09,55,13.80
2012,07,21,09,56,13.80
2012,07,21,09,57,13.80
2012,07,21,09,58,13.80
2012,07,21,09,59,13.80
2012,07,21,10,00,13.80
2012,07,21,10,01,13.80
2012,07,21,10,02,13.80
2012,07,21,10,03,13.80
2012,07,21,10,04,13.80
2012,07,21,10,05,13.80
2012,07,21,10,06,13.80
2012,07,21,10,07,13.80
2012,07,21,10,08,13.80
2012,07,21,10,09,13.80
2012,07,21,10,10,13.80
2012,07,21,10,11,13.80
2012,07,21,10,12,13.80
2012,07,21,10,13,13.80
2012,07,21,10,14,13.80
2012,07,21,10,15,13.80
2012,07,21,10,16,13.80
2012,07,21,10,17,13.80
2012,07,21,10,18,13.80
2012,07,21,10,19,13.80
2012,07,21,10,20,13.80
2012,07,21,10,21,13.80
2012,07,21,10,22,13.80
2012,07,21,10,23,13.80
2012,07,21,10,24,13.90
2012,07,21,10,25,13.90
2012,07,21,10,26,13.90
2012,07,21,10,27,13.90
2012,07,21,10,28,13.90
2012,07,21,10,29,13.90
2012,07,21,10,30,14.00
2012,07,21,10,31,14.00
2012,07,21,10,32,14.00
2012,07,21,10,33,14.10
2012,07,21,10,34,14.10
2012,07,21,10,35,14.10
2012,07,21,10,36,14.20
2012,07,21,10,37,14.20
2012,07,21,10,38,14.30
2012,07,21,10,39,14.30
2012,07,21,10,40,14.30
2012,07,21,10,41,14.40
2012,07,21,10,42,14.40
2012,07,21,10,43,14.50
2012,07,21,10,44,14.50
2012,07,21,10,45,14.50
2012,07,21,10,46,14.60
2012,07,21,10,47,14.60
2012,07,21,10,48,14.70
2012,07,21,10,49,14.70
2012,07,21,10,50,14.70
2012,07,21,10,51,14.70
2012,07,21,10,52,14.80
2012,07,21,10,53,14.80
2012,07,21,10,54,14.80
2012,07,21,10,55,14.80
2012,07,21,10,56,14.80
2012,07,21,10,57,14.80
2012,07,21,10,58,14.90
2012,07,21,10,59,14.90
2012,07,21,11,00,14.90
2012,07,21,11,01,14.90
2012,07,21,11,02,15.00
2012,07,21,11,03,15.00
2012,07,21,11,04,15.00
2012,07,21,11,05,15.00
2012,07,21,11,06,15.00
2012,07,21,11,07,15.10
2012,07,21,11,08,15.10
2012,07,21,11,09,15.10
2012,07,21,11,10,15.10
2012,07,21,11,11,15.10
2012,07,21,11,12,15.10
2012,07,21,11,13,15.20
2012,07,21,11,14,15.20
2012,07,21,11,15,15.20
2012,07,21,11,16,15.20
2012,07,21,11,17,15.20
2012,07,21,11,18,15.30
2012,07,21,11,19,15.30
2012,07,21,11,20,15.30
2012,07,21,11,21,15.30
2012,07,21,11,22,15.30
2012,07,21,11,23,15.30
2012,07,21,11,24,15.30
2012,07,21,11,25,15.30
2012,07,21,11,26,15.30
2012,07,21,11,27,15.30
2012,07,21,11,28,15.30
2012,07,21,11,29,15.30
2012,07,21,11,30,15.30
2012,07,21,11,31,15.30
2012,07,21,11,32,15.30
2012,07,21,11,33,15.30
2012,07,21,11,34,15.40
2012,07,21,11,35,15.40
2012,07,21,11,36,15.40
2012,07,21,11,37,15.40
2012,07,21,11,38,15.50
2012,07,21,11,39,15.60
2012,07,21,11,40,15.60
2012,07,21,11,41,15.70
2012,07,21,11,42,15.80
2012,07,21,11,43,15.80
2012,07,21,11,44,15.90
2012,07,21,11,45,16.00
2012,07,21,11,46,16.10
2012,07,21,11,47,16.20
2012,07,21,11,48,16.20
2012,07,21,11,49,16.30
2012,07,21,11,50,16.30
2012,07,21,11,51,16.30
2012,07,21,11,52,16.40
2012,07,21,11,53,16.40
2012,07,21,11,54,16.40
2012,07,21,11,55,16.50
2012,07,21,11,56,16.50
2012,07,21,11,57,16.60
2012,07,21,11,58,16.60
2012,07,21,11,59,16.60
2012,07,21,12,00,16.60
2012,07,21,12,01,16.60
2012,07,21,12,02,16.70
2012,07,21,12,03,16.70
2012,07,21,12,04,16.70
2012,07,21,12,05,16.80
2012,07,21,12,06,16.80
2012,07,21,12,07,16.80
2012,07,21,12,08,16.90
2012,07,21,12,09,16.90
2012,07,21,12,10,17.00
2012,07,21,12,11,17.00
2012,07,21,12,12,17.10
2012,07,21,12,13,17.10
2012,07,21,12,14,17.20
2012,07,21,12,15,17.20
2012,07,21,12,16,17.20
2012,07,21,12,17,17.20
2012,07,21,12,18,17.20
2012,07,21,12,19,17.20
2012,07,21,12,20,17.20
2012,07,21,12,21,17.20
2012,07,21,12,22,17.20
2012,07,21,12,23,17.10
2012,07,21,12,24,17.10
2012,07,21,12,25,17.10
2012,07,21,12,26,17.10
2012,07,21,12,27,17.10
2012,07,21,12,28,17.10
2012,07,21,12,29,17.10
2012,07,21,12,30,17.10
2012,07,21,12,31,17.10
2012,07,21,12,32,17.10
2012,07,21,12,33,17.10
2012,07,21,12,34,17.20
2012,07,21,12,35,17.20
2012,07,21,12,36,17.20
2012,07,21,12,37,17.20
2012,07,21,12,38,17.30
2012,07,21,12,39,17.30
2012,07,21,12,40,17.30
2012,07,21,12,41,17.30
2012,07,21,12,42,17.30
2012,07,21,12,43,17.40
2012,07,21,12,44,17.40
2012,07,21,12,45,17.50
2012,07,21,12,46,17.50
2012,07,21,12,47,17.60
2012,07,21,12,48,17.60
2012,07,21,12,49,17.60
2012,07,21,12,50,17.60
2012,07,21,12,51,17.60
2012,07,21,12,52,17.70
2012,07,21,12,53,17.70
2012,07,21,12,54,17.70
2012,07,21,12,55,17.70
2012,07,21,12,56,17.70
2012,07,21,12,57,17.70
2012,07,21,12,58,17.70
2012,07,21,12,59,17.70
2012,07,21,13,00,17.70
2012,07,21,13,01,17.70
2012,07,21,13,02,17.60
2012,07,21,13,03,17.60
2012,07,21,13,04,17.60
2012,07,21,13,05,17.60
2012,07,21,13,06,17.60
2012,07,21,13,07,17.50
2012,07,21,13,08,17.50
2012,07,21,13,09,17.50
2012,07,21,13,10,17.40
2012,07,21,13,11,17.40
2012,07,21,13,12,17.40
2012,07,21,13,13,17.40
2012,07,21,13,14,17.40
2012,07,21,13,15,17.50
2012,07,21,13,16,17.50
2012,07,21,13,17,17.50
2012,07,21,13,18,17.50
2012,07,21,13,19,17.60
2012,07,21,13,20,17.60
2012,07,21,13,21,17.70
2012,07,21,13,22,17.70
2012,07,21,13,23,17.70
2012,07,21,13,24,17.70
2012,07,21,13,25,17.70
2012,07,21,13,26,17.80
2012,07,21,13,27,17.80
2012,07,21,13,28,17.80
2012,07,21,13,29,17.90
2012,07,21,13,30,17.90
2012,07,21,13,31,18.00
2012,07,21,13,32,18.00
2012,07,21,13,33,18.10
2012,07,21,13,34,18.10
2012,07,21,13,35,18.10
2012,07,21,13,36,18.20
2012,07,21,13,37,18.20
2012,07,21,13,38,18.20
2012,07,21,13,39,18.30
2012,07,21,13,40,18.30
2012,07,21,13,41,18.40
2012,07,21,13,42,18.40
2012,07,21,13,43,18.50
2012,07,21,13,44,18.60
2012,07,21,13,45,18.70
2012,07,21,13,46,18.70
2012,07,21,13,47,18.80
2012,07,21,13,48,18.80
2012,07,21,13,49,18.90
2012,07,21,13,50,18.90
2012,07,21,13,51,19.00
2012,07,21,13,52,19.00
2012,07,21,13,53,19.10
2012,07,21,13,54,19.10
2012,07,21,13,55,19.20
2012,07,21,13,56,19.20
2012,07,21,13,57,19.20
2012,07,21,13,58,19.10
2012,07,21,13,59,19.10
2012,07,21,14,00,19.10
2012,07,21,14,01,19.10
2012,07,21,14,02,19.10
2012,07,21,14,03,19.10
2012,07,21,14,04,19.10
2012,07,21,14,05,19.10
2012,07,21,14,06,19.10
2012,07,21,14,07,19.10
2012,07,21,14,08,19.10
2012,07,21,14,09,19.20
2012,07,21,14,10,19.20
2012,07,21,14,11,19.20
2012,07,21,14,12,19.20
2012,07,21,14,13,19.30
2012,07,21,14,14,19.30
2012,07,21,14,15,19.30
2012,07,21,14,16,19.40
2012,07,21,14,17,19.40
2012,07,21,14,18,19.40
2012,07,21,14,19,19.40
2012,07,21,14,20,19.40
2012,07,21,14,21,19.40
2012,07,21,14,22,19.40
2012,07,21,14,23,19.30
2012,07,21,14,24,19.30
2012,07,21,14,25,19.30
2012,07,21,14,26,19.30
2012,07,21,14,27,19.30
2012,07,21,14,28,19.40
2012,07,21,14,29,19.40
2012,07,21,14,30,19.40
2012,07,21,14,31,19.50
2012,07,21,14,32,19.50
2012,07,21,14,33,19.40
2012,07,21,14,34,19.40
2012,07,21,14,35,19.40
2012,07,21,14,36,19.40
2012,07,21,14,37,19.50
2012,07,21,14,38,19.50
2012,07,21,14,39,19.50
2012,07,21,14,40,19.60
2012,07,21,14,41,19.60
2012,07,21,14,42,19.70
2012,07,21,14,43,19.70
2012,07,21,14,44,19.80
2012,07,21,14,45,19.80
2012,07,21,14,46,19.80
2012,07,21,14,47,19.90
2012,07,21,14,48,19.90
2012,07,21,14,49,19.90
2012,07,21,14,50,19.90
2012,07,21,14,51,19.90
2012,07,21,14,52,19.90
2012,07,21,14,53,19.90
2012,07,21,14,54,19.90
2012,07,21,14,55,19.90
2012,07,21,14,56,19.90
2012,07,21,14,57,19.90
2012,07,21,14,58,20.00
2012,07,21,14,59,20.00
2012,07,21,15,00,20.00
2012,07,21,15,01,20.10
2012,07,21,15,02,20.10
2012,07,21,15,03,20.20
2012,07,21,15,04,20.20
2012,07,21,15,05,20.30
2012,07,21,15,06,20.30
2012,07,21,15,07,20.30
2012,07,21,15,08,20.40
2012,07,21,15,09,20.40
2012,07,21,15,10,20.40
2012,07,21,15,11,20.40
2012,07,21,15,12,20.50
2012,07,21,15,13,20.50
2012,07,21,15,14,20.50
2012,07,21,15,15,20.60
2012,07,21,15,16,20.60
2012,07,21,15,17,20.60
2012,07,21,15,18,20.60
2012,07,21,15,19,20.60
2012,07,21,15,20,20.60
2012,07,21,15,21,20.60
2012,07,21,15,22,20.60
2012,07,21,15,23,20.60
2012,07,21,15,24,20.60
2012,07,21,15,25,20.70
2012,07,21,15,26,20.70
2012,07,21,15,27,20.70
2012,07,21,15,28,20.70
2012,07,21,15,29,20.70
2012,07,21,15,30,20.70
2012,07,21,15,31,20.70
2012,07,21,15,32,20.70
2012,07,21,15,33,20.70
2012,07,21,15,34,20.60
2012,07,21,15,35,20.60
2012,07,21,15,36,20.70
2012,07,21,15,37,20.60
2012,07,21,15,38,20.60
2012,07,21,15,39,20.60
2012,07,21,15,40,20.60
2012,07,21,15,41,20.60
2012,07,21,15,42,20.60
2012,07,21,15,43,20.60
2012,07,21,15,44,20.60
2012,07,21,15,45,20.60
2012,07,21,15,46,20.60
2012,07,21,15,47,20.60
2012,07,21,15,48,20.50
2012,07,21,15,49,20.50
2012,07,21,15,50,20.50
2012,07,21,15,51,20.50
2012,07,21,15,52,20.50
2012,07,21,15,53,20.50
2012,07,21,15,54,20.60
2012,07,21,15,55,20.60
2012,07,21,15,56,20.70
2012,07,21,15,57,20.80
2012,07,21,15,58,20.80
2012,07,21,15,59,20.90
2012,07,21,16,00,21.00
2012,07,21,16,01,21.10
2012,07,21,16,02,21.10
2012,07,21,16,03,21.20
2012,07,21,16,04,21.20
2012,07,21,16,05,21.20
2012,07,21,16,06,21.30
2012,07,21,16,07,21.30
2012,07,21,16,08,21.30
2012,07,21,16,09,21.40
2012,07,21,16,10,21.50
2012,07,21,16,11,21.50
2012,07,21,16,12,21.50
2012,07,21,16,13,21.50
2012,07,21,16,14,21.50
2012,07,21,16,15,21.50
2012,07,21,16,16,21.60
2012,07,21,16,17,21.60
2012,07,21,16,18,21.60
2012,07,21,16,19,21.60
2012,07,21,16,20,21.60
2012,07,21,16,21,21.70
2012,07,21,16,22,21.70
2012,07,21,16,23,21.70
2012,07,21,16,24,21.70
2012,07,21,16,25,21.70
2012,07,21,16,26,21.70
2012,07,21,16,27,21.80
2012,07,21,16,28,21.80
2012,07,21,16,29,21.80
2012,07,21,16,30,21.80
2012,07,21,16,31,21.80
2012,07,21,16,32,21.80
2012,07,21,16,33,21.80
2012,07,21,16,34,21.80
2012,07,21,16,35,21.80
2012,07,21,16,36,21.90
2012,07,21,16,37,21.90
2012,07,21,16,38,21.90
2012,07,21,16,39,22.00
2012,07,21,16,40,22.00
2012,07,21,16,41,22.00
2012,07,21,16,42,22.00
2012,07,21,16,43,22.10
2012,07,21,16,44,22.10
2012,07,21,16,45,22.10
2012,07,21,16,46,22.00
2012,07,21,16,47,22.00
2012,07,21,16,48,21.90
2012,07,21,16,49,21.90
2012,07,21,16,50,21.90
2012,07,21,16,51,21.80
2012,07,21,16,52,21.80
2012,07,21,16,53,21.80
2012,07,21,16,54,21.80
2012,07,21,16,55,21.90
2012,07,21,16,56,21.90
2012,07,21,16,57,21.90
2012,07,21,16,58,21.90
2012,07,21,16,59,22.00
2012,07,21,17,00,22.10
2012,07,21,17,01,22.10
2012,07,21,17,02,22.20
2012,07,21,17,03,22.20
2012,07,21,17,04,22.30
2012,07,21,17,05,22.40
2012,07,21,17,06,22.40
2012,07,21,17,07,22.50
2012,07,21,17,08,22.60
2012,07,21,17,09,22.60
2012,07,21,17,10,22.60
2012,07,21,17,11,22.60
2012,07,21,17,12,22.60
2012,07,21,17,13,22.50
2012,07,21,17,14,22.50
2012,07,21,17,15,22.50
2012,07,21,17,16,22.50
2012,07,21,17,17,22.60
2012,07,21,17,18,22.60
2012,07,21,17,19,22.70